Location: Albuquerque Trailhead
(34.7934°N, 106.3736°W)
Time: 22:17:09
(UTC+00:00)

Resurs 01 Rocket - Pass Details

Date: 20 June 2021
Orbit: 635 x 643 km, 97.9° (Epoch: 01 August)

Event Time Altitude Azimuth Distance (km) Brightness Sun altitude
Exits shadow 03:06:35 11° 130° (SE) 1,964 3.4 -8.5°
Maximum altitude 03:10:13 29° 71° (ENE) 1,171 2.7 -9.1°
Drops below altitude 10° 03:14:00 10° 12° (NNE) 2,026 4.6 -9.7°
Sets 03:16:26 0° 1° (N) 2,939 5.6 -10.1°
